DAL22 KRNO-KLAX

Flight info

Callsign DAL22
Flight time 1h 6m
Altitude 37000
Route REBRG IRNMN2
Aircraft B738/M-SDE2E3FGHIRWXY/LB1

Departure

Time 2026-05-05 03:52
Airport Reno Tahoe International Airport (KRNO)

Arrival

Time 2026-05-05 04:59
Airport Los Angeles International Airport (KLAX)
Time Latitude Longitude Altitude Speed Heading
2026-05-05 03:52 39.46852 -119.37102 18937 ft 365 kts 44°
2026-05-05 03:52 39.48709 -119.34865 18914 ft 364 kts 44°
2026-05-05 03:52 39.50566 -119.32625 18919 ft 364 kts 44°
2026-05-05 03:52 39.52430 -119.30392 18945 ft 368 kts 44°
2026-05-05 03:53 39.54221 -119.28000 19421 ft 371 kts 56°
2026-05-05 03:53 39.55258 -119.24978 20255 ft 368 kts 75°
2026-05-05 03:53 39.55594 -119.21667 20851 ft 375 kts 88°
2026-05-05 03:53 39.55271 -119.18283 21395 ft 384 kts 102°
2026-05-05 03:54 39.54231 -119.15064 22005 ft 393 kts 118°
2026-05-05 03:54 39.52461 -119.12316 22616 ft 405 kts 135°
2026-05-05 03:54 39.50038 -119.10359 23202 ft 418 kts 153°
2026-05-05 03:54 39.47232 -119.09358 23705 ft 430 kts 167°
2026-05-05 03:55 39.44210 -119.09210 24162 ft 439 kts 178°
2026-05-05 03:55 39.41145 -119.09547 24625 ft 444 kts 183°
2026-05-05 03:55 39.38065 -119.10119 25068 ft 449 kts 185°
2026-05-05 03:55 39.34957 -119.10695 25473 ft 452 kts 184°
2026-05-05 03:56 39.31818 -119.11192 25899 ft 455 kts 183°
2026-05-05 03:56 39.28658 -119.11661 26337 ft 457 kts 182°
2026-05-05 03:56 39.25537 -119.12121 26836 ft 457 kts 182°
2026-05-05 03:56 39.22378 -119.12592 27462 ft 455 kts 182°
2026-05-05 03:57 39.19235 -119.13071 28090 ft 453 kts 182°
2026-05-05 03:57 39.16098 -119.13558 28663 ft 453 kts 183°
2026-05-05 03:57 39.12956 -119.14049 29133 ft 454 kts 183°
2026-05-05 03:57 39.09818 -119.14541 29684 ft 454 kts 183°
2026-05-05 03:58 39.06725 -119.15028 30224 ft 452 kts 182°
2026-05-05 03:58 39.03611 -119.15518 30704 ft 451 kts 182°
2026-05-05 03:58 39.00489 -119.16008 31143 ft 451 kts 182°
2026-05-05 03:58 38.97376 -119.16496 31574 ft 450 kts 182°
2026-05-05 03:59 38.94265 -119.16983 32029 ft 449 kts 182°
2026-05-05 03:59 38.91158 -119.17469 32486 ft 448 kts 182°
2026-05-05 03:59 38.88063 -119.17953 32915 ft 448 kts 182°
2026-05-05 03:59 38.84968 -119.18435 33347 ft 448 kts 182°
2026-05-05 04:00 38.81876 -119.18917 33763 ft 448 kts 182°
2026-05-05 04:00 38.78757 -119.19401 33825 ft 456 kts 182°
2026-05-05 04:00 38.75581 -119.19892 33957 ft 461 kts 184°
2026-05-05 04:00 38.72390 -119.20385 34172 ft 464 kts 184°
2026-05-05 04:01 38.69212 -119.20880 34300 ft 468 kts 184°
2026-05-05 04:01 38.65960 -119.21386 34469 ft 471 kts 184°
2026-05-05 04:01 38.62697 -119.21894 34707 ft 471 kts 184°
2026-05-05 04:01 38.59447 -119.22400 35060 ft 469 kts 185°
2026-05-05 04:02 38.56217 -119.22902 35466 ft 465 kts 185°
2026-05-05 04:02 38.53011 -119.23399 35918 ft 461 kts 185°
2026-05-05 04:02 38.49838 -119.23891 36333 ft 457 kts 185°
2026-05-05 04:02 38.46719 -119.24373 36580 ft 458 kts 186°
2026-05-05 04:03 38.43548 -119.24861 36811 ft 458 kts 185°
2026-05-05 04:03 38.40380 -119.25354 36921 ft 461 kts 186°
2026-05-05 04:03 38.33963 -119.26339 36941 ft 464 kts 186°
2026-05-05 04:04 38.27583 -119.27316 36936 ft 459 kts 186°
2026-05-05 04:04 38.21296 -119.28280 36944 ft 455 kts 186°
2026-05-05 04:05 38.15033 -119.29239 36949 ft 452 kts 186°
2026-05-05 04:05 38.08796 -119.30193 36955 ft 450 kts 186°
2026-05-05 04:06 38.02598 -119.31139 36951 ft 448 kts 186°
2026-05-05 04:06 37.96414 -119.32081 36958 ft 447 kts 186°
2026-05-05 04:07 37.90238 -119.33020 36968 ft 447 kts 187°
2026-05-05 04:07 37.84052 -119.33959 36961 ft 448 kts 187°
2026-05-05 04:08 37.77844 -119.34899 36968 ft 449 kts 187°
2026-05-05 04:08 37.71659 -119.35835 36977 ft 451 kts 187°
2026-05-05 04:09 37.65417 -119.36777 37000 ft 452 kts 187°
2026-05-05 04:09 37.59154 -119.37722 36998 ft 453 kts 187°
2026-05-05 04:10 37.52893 -119.38664 37000 ft 453 kts 187°
2026-05-05 04:10 37.46622 -119.39607 37009 ft 453 kts 187°
2026-05-05 04:11 37.40408 -119.40540 36995 ft 451 kts 187°
2026-05-05 04:11 37.34171 -119.41471 37008 ft 449 kts 187°
2026-05-05 04:12 37.27965 -119.42401 36998 ft 448 kts 187°
2026-05-05 04:12 37.21793 -119.43323 37012 ft 446 kts 188°
2026-05-05 04:13 37.15665 -119.44237 36994 ft 445 kts 188°
2026-05-05 04:13 37.09519 -119.45151 36999 ft 443 kts 188°
2026-05-05 04:14 37.03391 -119.46062 37004 ft 442 kts 188°
2026-05-05 04:14 36.97310 -119.46963 37006 ft 441 kts 188°
2026-05-05 04:15 36.91212 -119.47866 37012 ft 439 kts 188°
2026-05-05 04:15 36.85180 -119.48758 37015 ft 438 kts 188°
2026-05-05 04:16 36.79119 -119.49653 37017 ft 437 kts 188°
2026-05-05 04:16 36.73074 -119.50544 37017 ft 437 kts 188°
2026-05-05 04:17 36.67025 -119.51434 37017 ft 437 kts 188°
2026-05-05 04:17 36.61012 -119.52317 37014 ft 437 kts 188°
2026-05-05 04:18 36.54969 -119.53204 37019 ft 437 kts 188°
2026-05-05 04:18 36.48913 -119.54090 37045 ft 437 kts 188°
2026-05-05 04:19 36.42868 -119.54973 37030 ft 442 kts 188°
2026-05-05 04:19 36.36734 -119.55870 37030 ft 445 kts 188°
2026-05-05 04:20 36.30562 -119.56769 37029 ft 447 kts 188°
2026-05-05 04:20 36.24380 -119.57669 37024 ft 447 kts 188°
2026-05-05 04:21 36.18203 -119.58566 37021 ft 445 kts 188°
2026-05-05 04:21 36.12098 -119.59451 37020 ft 442 kts 188°
2026-05-05 04:22 36.07365 -119.60137 37003 ft 440 kts 188°
2026-05-05 04:23 36.03920 -119.60636 36996 ft 438 kts 188°
2026-05-05 04:23 35.97879 -119.61536 36988 ft 434 kts 191°
2026-05-05 04:24 35.92134 -119.63520 36993 ft 430 kts 199°
2026-05-05 04:25 35.83619 -119.66913 36996 ft 428 kts 198°
2026-05-05 04:25 35.77909 -119.69075 36998 ft 428 kts 198°
2026-05-05 04:26 35.72241 -119.71193 37001 ft 428 kts 198°
2026-05-05 04:26 35.66521 -119.73325 36998 ft 430 kts 198°
2026-05-05 04:27 35.60667 -119.74913 37014 ft 432 kts 192°
2026-05-05 04:27 35.54734 -119.76226 37008 ft 433 kts 192°
2026-05-05 04:28 35.48837 -119.77600 37010 ft 434 kts 193°
2026-05-05 04:28 35.42899 -119.79035 37002 ft 434 kts 193°
2026-05-05 04:29 35.36968 -119.80473 37017 ft 434 kts 193°
2026-05-05 04:29 35.30989 -119.81472 37007 ft 439 kts 177°
2026-05-05 04:29 35.27972 -119.80732 36772 ft 449 kts 165°
2026-05-05 04:30 35.25119 -119.79068 36232 ft 457 kts 150°
2026-05-05 04:30 35.22544 -119.76774 35619 ft 458 kts 147°
2026-05-05 04:30 35.20055 -119.74395 34933 ft 461 kts 147°
2026-05-05 04:30 35.17534 -119.71950 34203 ft 463 kts 146°
2026-05-05 04:31 35.14996 -119.69508 33355 ft 466 kts 147°
2026-05-05 04:31 35.12431 -119.67071 32554 ft 466 kts 147°
2026-05-05 04:31 35.09869 -119.64663 31976 ft 461 kts 147°
2026-05-05 04:31 35.07322 -119.62285 31430 ft 456 kts 147°
2026-05-05 04:32 35.04811 -119.59950 30903 ft 451 kts 147°
2026-05-05 04:32 35.02324 -119.57642 30367 ft 446 kts 148°
2026-05-05 04:32 34.99894 -119.55387 29808 ft 442 kts 148°
2026-05-05 04:32 34.97457 -119.53125 29193 ft 437 kts 148°
2026-05-05 04:33 34.95055 -119.50895 28663 ft 430 kts 148°
2026-05-05 04:33 34.92684 -119.48702 28138 ft 424 kts 148°
2026-05-05 04:33 34.90340 -119.46545 27603 ft 419 kts 149°
2026-05-05 04:33 34.88016 -119.44414 27063 ft 415 kts 148°
2026-05-05 04:34 34.85701 -119.42340 26534 ft 410 kts 149°
2026-05-05 04:34 34.83395 -119.40312 26029 ft 406 kts 149°
2026-05-05 04:34 34.81143 -119.38327 25522 ft 403 kts 149°
2026-05-05 04:34 34.78887 -119.36321 25048 ft 400 kts 149°
2026-05-05 04:35 34.76649 -119.34332 24551 ft 396 kts 149°
2026-05-05 04:35 34.74458 -119.32374 24296 ft 387 kts 149°
2026-05-05 04:35 34.72273 -119.30448 23790 ft 386 kts 149°
2026-05-05 04:35 34.70093 -119.28549 23266 ft 384 kts 149°
2026-05-05 04:36 34.67931 -119.26666 22732 ft 381 kts 149°
2026-05-05 04:36 34.65793 -119.24801 22256 ft 377 kts 149°
2026-05-05 04:36 34.63669 -119.22955 21822 ft 372 kts 149°
2026-05-05 04:36 34.61568 -119.21143 21329 ft 369 kts 149°
2026-05-05 04:37 34.59475 -119.19347 20887 ft 366 kts 149°
2026-05-05 04:37 34.57403 -119.17563 20437 ft 364 kts 149°
2026-05-05 04:37 34.55347 -119.15780 19973 ft 362 kts 148°
2026-05-05 04:37 34.53314 -119.13980 19525 ft 359 kts 148°
2026-05-05 04:38 34.51326 -119.12210 19091 ft 358 kts 147°
2026-05-05 04:38 34.49322 -119.10429 18649 ft 356 kts 148°
2026-05-05 04:38 34.47325 -119.08660 18192 ft 355 kts 148°
2026-05-05 04:38 34.45332 -119.06897 17774 ft 352 kts 148°
2026-05-05 04:39 34.43366 -119.05165 17392 ft 348 kts 148°
2026-05-05 04:39 34.41400 -119.03462 16954 ft 346 kts 148°
2026-05-05 04:39 34.39442 -119.01771 16376 ft 348 kts 148°
2026-05-05 04:39 34.37466 -119.00064 15882 ft 348 kts 148°
2026-05-05 04:40 34.35503 -118.98367 15426 ft 346 kts 148°
2026-05-05 04:40 34.33548 -118.96664 14990 ft 345 kts 147°
2026-05-05 04:40 34.31628 -118.94926 14542 ft 344 kts 146°
2026-05-05 04:40 34.29744 -118.93203 14106 ft 343 kts 146°
2026-05-05 04:41 34.27838 -118.91466 13644 ft 342 kts 146°
2026-05-05 04:41 34.25941 -118.89743 13168 ft 340 kts 146°
2026-05-05 04:41 34.24059 -118.88025 12729 ft 338 kts 146°
2026-05-05 04:41 34.22205 -118.86318 12378 ft 333 kts 145°
2026-05-05 04:42 34.20392 -118.84648 12250 ft 321 kts 145°
2026-05-05 04:42 34.18639 -118.83037 12101 ft 312 kts 145°
2026-05-05 04:42 34.16936 -118.81474 11979 ft 302 kts 146°
2026-05-05 04:42 34.15312 -118.79883 11689 ft 300 kts 141°
2026-05-05 04:43 34.13767 -118.78193 11404 ft 299 kts 140°
2026-05-05 04:43 34.12236 -118.76490 11098 ft 299 kts 140°
2026-05-05 04:43 34.10701 -118.74793 10804 ft 300 kts 140°
2026-05-05 04:43 34.09159 -118.73100 10517 ft 299 kts 140°
2026-05-05 04:44 34.07616 -118.71423 10206 ft 297 kts 140°
2026-05-05 04:44 34.06089 -118.69766 9939 ft 294 kts 140°
2026-05-05 04:44 34.04582 -118.68126 9758 ft 287 kts 140°
2026-05-05 04:44 34.03252 -118.66352 9301 ft 291 kts 120°
2026-05-05 04:45 34.02675 -118.64038 8837 ft 293 kts 100°
2026-05-05 04:45 34.02456 -118.61598 8317 ft 291 kts 97°
2026-05-05 04:45 34.02257 -118.59173 7796 ft 288 kts 97°
2026-05-05 04:45 34.02048 -118.56780 7297 ft 285 kts 98°
2026-05-05 04:46 34.01833 -118.54411 6805 ft 282 kts 98°
2026-05-05 04:46 34.01617 -118.52068 6315 ft 280 kts 98°
2026-05-05 04:46 34.01399 -118.49749 5797 ft 277 kts 98°
2026-05-05 04:46 34.01182 -118.47450 5292 ft 275 kts 98°
2026-05-05 04:47 34.01053 -118.45193 4777 ft 274 kts 86°
2026-05-05 04:47 34.01421 -118.42949 4276 ft 271 kts 77°
2026-05-05 04:47 34.01845 -118.40741 3762 ft 269 kts 78°
2026-05-05 04:47 34.02242 -118.38539 3265 ft 267 kts 78°
2026-05-05 04:48 34.02621 -118.36372 3015 ft 258 kts 78°
2026-05-05 04:48 34.02915 -118.34287 2987 ft 246 kts 83°
2026-05-05 04:48 34.03113 -118.32293 2975 ft 233 kts 84°
2026-05-05 04:48 34.03297 -118.30385 2991 ft 226 kts 83°
2026-05-05 04:49 34.03484 -118.28547 2983 ft 220 kts 83°
2026-05-05 04:49 34.03675 -118.26754 2978 ft 214 kts 83°
2026-05-05 04:49 34.03865 -118.24927 3015 ft 227 kts 83°
2026-05-05 04:49 34.04062 -118.23006 3005 ft 232 kts 83°
2026-05-05 04:50 34.04262 -118.21061 3036 ft 234 kts 83°
2026-05-05 04:50 34.04467 -118.19093 3002 ft 239 kts 84°
2026-05-05 04:50 34.04674 -118.17087 2999 ft 242 kts 83°
2026-05-05 04:50 34.04873 -118.15069 2996 ft 242 kts 83°
2026-05-05 04:51 34.05068 -118.13057 2987 ft 240 kts 83°
2026-05-05 04:51 34.05144 -118.11085 2956 ft 237 kts 101°
2026-05-05 04:51 34.04479 -118.09320 2966 ft 231 kts 134°
2026-05-05 04:51 34.03180 -118.08260 2977 ft 227 kts 159°
2026-05-05 04:52 34.01677 -118.07640 2972 ft 230 kts 174°
2026-05-05 04:52 34.00131 -118.07901 2983 ft 225 kts 207°
2026-05-05 04:52 33.98973 -118.09119 2986 ft 222 kts 237°
2026-05-05 04:52 33.98173 -118.10722 2979 ft 223 kts 241°
2026-05-05 04:53 33.97414 -118.12354 2997 ft 223 kts 244°
2026-05-05 04:53 33.96902 -118.14081 3156 ft 213 kts 259°
2026-05-05 04:53 33.96768 -118.15790 3102 ft 204 kts 268°
2026-05-05 04:53 33.96773 -118.17497 2931 ft 200 kts 271°
2026-05-05 04:54 33.96835 -118.19120 2896 ft 189 kts 273°
2026-05-05 04:54 33.96926 -118.20667 2827 ft 184 kts 274°
2026-05-05 04:54 33.97031 -118.22197 2876 ft 181 kts 275°
2026-05-05 04:54 33.97161 -118.23705 2933 ft 181 kts 274°
2026-05-05 04:55 33.97076 -118.25213 2974 ft 181 kts 256°
2026-05-05 04:55 33.96783 -118.26642 2987 ft 169 kts 257°
2026-05-05 04:55 33.96526 -118.27961 2912 ft 156 kts 257°
2026-05-05 04:55 33.96294 -118.29261 2593 ft 161 kts 260°
2026-05-05 04:56 33.96106 -118.30527 2490 ft 140 kts 262°
2026-05-05 04:56 33.96009 -118.31590 2266 ft 123 kts 266°
2026-05-05 04:56 33.95945 -118.32598 1927 ft 122 kts 265°
2026-05-05 04:56 33.95856 -118.33639 1520 ft 128 kts 264°
2026-05-05 04:57 33.95746 -118.34708 1199 ft 129 kts 262°
2026-05-05 04:57 33.95663 -118.35781 934 ft 128 kts 262°
2026-05-05 04:57 33.95549 -118.36853 683 ft 129 kts 261°
2026-05-05 04:57 33.95437 -118.37888 574 ft 121 kts 262°
2026-05-05 04:58 33.95334 -118.38893 382 ft 120 kts 262°
2026-05-05 04:58 33.95243 -118.39883 229 ft 117 kts 262°
2026-05-05 04:58 33.95145 -118.40792 125 ft 98 kts 264°
2026-05-05 04:58 33.95085 -118.41427 124 ft 54 kts 263°
2026-05-05 04:59 33.95009 -118.41817 124 ft 38 kts 237°
2026-05-05 04:59 33.94967 -118.41886 123 ft 0 kts 233°
2026-05-05 04:59 33.94910 -118.41970 123 ft 30 kts 232°
2026-05-05 04:59 33.94779 -118.42182 125 ft 28 kts 231°
2026-05-05 05:00 33.94690 -118.42320 125 ft 20 kts 234°
2026-05-05 05:00 33.94663 -118.42493 125 ft 21 kts 257°
2026-05-05 05:00 33.94638 -118.42666 125 ft 21 kts 265°
2026-05-05 05:00 33.94566 -118.42767 123 ft 18 kts 169°
2026-05-05 05:01 33.94502 -118.42827 121 ft 12 kts 265°
2026-05-05 05:01 33.94495 -118.42897 125 ft 0 kts 265°